Regional Weather Roundup
Issued by NWS

Home | Current Version | Previous Version | Graphics & Text | Print | Product List | Glossary On
Versions: 1 2 3 4 5 6 7 8 9 10 11 12 13 14 15 16 17 18 19 20 21 22 23 24 25 26 27 28 29 30 31 32 33 34 35 36 37 38 39 40 41 42 43 44 45 46 47 48 49 50
000
ASUS43 KLOT 281703
RWRIL

ILLINOIS REGIONAL WEATHER ROUNDUP
NATIONAL WEATHER SERVICE CHICAGO/ROMEOVILLE IL
1200 PM CDT SAT MAY 28 2016

NOTE: "FAIR" INDICATES FEW OR NO CLOUDS BELOW 12,000 FEET WITH NO
SIGNIFICANT WEATHER AND/OR OBSTRUCTIONS TO VISIBILITY.

* THESE STATIONS ARE NOT UNDER NWS QUALITY CONTROL. THEY ALSO MAY NOT
  REPORT WEATHER SUCH AS PRECIPITATION OR FOG.

ILZ001-002-007-009-015-016-024-281800-
NORTHWEST ILLINOIS

CITY           SKY/WX    TMP DP  RH WIND       PRES   REMARKS
MOLINE         MOSUNNY   80  65  59 S14G22    29.84S HX  82
STERLING*      PTSUNNY   77  67  71 S8        29.89R
$$

ILZ003-004-008-010-011-017-018-281800-
NORTH CENTRAL ILLINOIS

CITY           SKY/WX    TMP DP  RH WIND       PRES   REMARKS
ROCKFORD       CLOUDY    76  65  68 SW13G24   29.90S
FREEPORT*      CLOUDY    76  65  69 S20G26    29.90R
ROCHELLE*      CLOUDY    78  65  66 S23       29.90S
$$

ILZ005-006-012>014-019>023-281800-
NORTHEAST ILLINOIS

CITY           SKY/WX    TMP DP  RH WIND       PRES   REMARKS
CHICAGO-OHARE  CLOUDY    74  64  71 S15G29    29.92R
CHICAGO-MIDWAY CLOUDY    76  64  66 S14G23    29.93R
AURORA         CLOUDY    76  65  68 S18       29.93R
LANSING*       CLOUDY    75  65  69 S17G23    29.96R
WAUKEGAN       LGT RAIN  76  64  66 S16G26    29.90R
DUPAGE AIRPORT CLOUDY    75  64  68 S16G25    29.92R
WHEELING       PTSUNNY   75  63  66 S21G28    29.92R
NORTHERLY ISL    N/A     75  62  64 S20         N/A
NORTHERLY ISL    N/A     75  62  64 S20         N/A
$$

LMZ740>746-281800-
SOUTHERN LAKE MICHIGAN

STATION/POSITION SKY/WX   TEMP    WIND        PRES    VSBY  WAVE
                          AIR SEA DIR/SP/G                  HT/PER
                          (F)     (DEG/KT/KT) (MB)    (MI)  (FT/S)
SOUTHERN BUOY              55 50  150/ 12/ 14 1013.0          2/ 4
WILMETTE HARBOR            68 55  220/ 16/ 19   N/A           2/ 3
HARRISON CRIB              73     190/ 26/ 27   N/A
BURNHAM HARBOR             75     190/ 14/ 21   N/A
CALUMET HARBOR             74     200/ 18/ 24 1013.2R
BURNS HARBOR               75     190/ 15     1014.6R
MICHIGAN CITY              75     170/ 15/ 21   N/A
MICHIGAN CITY 6N           70 58  210/ 16/ 19   N/A           2/ 3
ST. JOSEPH                 68 61  190/ 10/ 14   N/A           2/ 3
$$

ILZ025>027-034>036-040-047-049-050-058-095>099-281800-
WEST-CENTRAL ILLINOIS

CITY           SKY/WX    TMP DP  RH WIND       PRES   REMARKS
QUINCY         MOSUNNY   77  65  66 S13       29.88S
MACOMB*        PTSUNNY   77  67  72 S14G20    29.90S
PITTSFIELD*    PTSUNNY   77  67  72 S13G20    29.92R
$$

ILZ028>032-037-038-041>044-048-051>054-059>061-281800-
CENTRAL ILLINOIS

CITY           SKY/WX    TMP DP  RH WIND       PRES   REMARKS
BLOOMINGTON    CLOUDY    77  67  71 S22       29.96S
DECATUR        CLOUDY    76  65  68 S17G30    29.96S
PEORIA         PTSUNNY   78  64  61 S20       29.91S HX  80
SPRINGFIELD    SUNNY     79  67  66 S15       29.93F HX  81
TAYLORVILLE    NOT AVBL
$$

ILZ033-039-045-046-055>057-062-063-281800-
EAST-CENTRAL ILLINOIS

CITY           SKY/WX    TMP DP  RH WIND       PRES   REMARKS
CHAMPAIGN      CLOUDY    76  66  71 S22       29.98S
MATTOON        CLOUDY    74  64  71 S15G23    29.99S
$$

ILZ079-100>102-281800-
SOUTHWEST ILLINOIS

CITY           SKY/WX    TMP DP  RH WIND       PRES   REMARKS
ALTON          MOSUNNY   77  68  73 S14       29.95R
BELLEVILLE     PTSUNNY   79  70  73 E12       29.95R HX  81
CAHOKIA*       SUNNY     81  66  60 S14       29.94R HX  83
SPARTA*        PTSUNNY   75  68  77 S12       29.99S
$$

ILZ064>066-069>071-074>076-080>082-084>086-088>090-092>094-281800-
SOUTH-CENTRAL ILLINOIS

CITY           SKY/WX    TMP DP  RH WIND       PRES   REMARKS
CARBONDALE     CLOUDY    75  66  73 S16       30.01R
MARION         CLOUDY    79  68  69 S16       30.01S HX  81
MT. VERNON     CLOUDY    77  66  69 SW14      30.01S
SALEM*         CLOUDY    76  67  75 S13G21    29.99R
$$

ILZ067-068-072-073-078-083-087-091-281800-
SOUTHEAST ILLINOIS

CITY           SKY/WX    TMP DP  RH WIND       PRES   REMARKS
LAWRENCEVILLE  SUNNY     84  64  50 S20       30.01F HX  85
FLORA*         CLOUDY    78  68  72 S15       30.00R HX  80
HARRISBURG*    CLOUDY    77  69  75 SW5       30.02R
ROBINSON*      SUNNY     80  67  64 S16G22    30.01S HX  82
$$

ABBREVIATIONS USED IN REMARKS
   TC - TEMPERATURE IN CELSIUS
  WCI - WIND CHILL INDEX
   HX - HEAT INDEX
  VSB - VISIBILITY
$$





USA.gov is the U.S. government's official web portal to all federal, state and local government web resources and services.